ASA3480 KBOI-KLAX

Flight info

Callsign ASA3480
Flight time N/A
Altitude 36000
Route HYVAL REO J7 FMG/N0459F350 FRA REBRG IRNMN2
Aircraft B739/M-SDE2E3FGHIRWXY/LB1

Departure

Time 2026-05-09 07:14
Airport Boise Air Terminal/Gowen Field (KBOI)

Arrival

Time N/A
Airport Los Angeles International Airport (KLAX)
Time Latitude Longitude Altitude Speed Heading
2026-05-09 06:46 43.56753 -116.22187 2880 ft 0 kts 334°
2026-05-09 07:03 43.56751 -116.22186 2880 ft 2 kts 334°
2026-05-09 07:04 43.56733 -116.22173 2880 ft 4 kts 334°
2026-05-09 07:04 43.56716 -116.22170 2880 ft 4 kts 358°
2026-05-09 07:04 43.56689 -116.22171 2880 ft 4 kts
2026-05-09 07:04 43.56665 -116.22175 2880 ft 0 kts
2026-05-09 07:07 43.56666 -116.22175 2880 ft 0 kts
2026-05-09 07:08 43.56683 -116.22172 2880 ft 4 kts 12°
2026-05-09 07:08 43.56694 -116.22150 2880 ft 2 kts 97°
2026-05-09 07:08 43.56679 -116.22144 2880 ft 0 kts 172°
2026-05-09 07:09 43.56638 -116.22147 2880 ft 9 kts 176°
2026-05-09 07:09 43.56593 -116.22083 2880 ft 11 kts 117°
2026-05-09 07:09 43.56554 -116.21972 2880 ft 16 kts 115°
2026-05-09 07:10 43.56506 -116.21831 2880 ft 16 kts 114°
2026-05-09 07:10 43.56460 -116.21694 2880 ft 16 kts 116°
2026-05-09 07:10 43.56415 -116.21562 2880 ft 15 kts 115°
2026-05-09 07:10 43.56371 -116.21435 2881 ft 14 kts 115°
2026-05-09 07:11 43.56330 -116.21314 2881 ft 14 kts 115°
2026-05-09 07:11 43.56287 -116.21189 2881 ft 15 kts 115°
2026-05-09 07:11 43.56244 -116.21063 2881 ft 14 kts 115°
2026-05-09 07:11 43.56204 -116.20945 2881 ft 13 kts 115°
2026-05-09 07:12 43.56153 -116.20867 2881 ft 11 kts 174°
2026-05-09 07:12 43.56083 -116.20904 2881 ft 11 kts 205°
2026-05-09 07:12 43.56016 -116.20947 2880 ft 10 kts 205°
2026-05-09 07:12 43.55971 -116.20976 2880 ft 6 kts 205°
2026-05-09 07:13 43.55934 -116.20995 2880 ft 6 kts 195°
2026-05-09 07:13 43.55906 -116.21029 2880 ft 6 kts 256°
2026-05-09 07:13 43.55909 -116.21052 2880 ft 0 kts 288°
2026-05-09 07:13 43.55988 -116.21289 2880 ft 62 kts 295°
2026-05-09 07:14 43.56267 -116.22107 2879 ft 124 kts 295°
2026-05-09 07:14 43.56704 -116.23394 2909 ft 168 kts 295°
2026-05-09 07:14 43.57202 -116.24864 3499 ft 170 kts 295°
2026-05-09 07:14 43.57709 -116.26389 4093 ft 176 kts 296°
2026-05-09 07:15 43.58193 -116.27984 4650 ft 189 kts 296°
2026-05-09 07:15 43.58689 -116.29740 5044 ft 206 kts 294°
2026-05-09 07:15 43.59185 -116.31635 5572 ft 213 kts 292°
2026-05-09 07:15 43.59541 -116.32969 5774 ft 228 kts 294°
2026-05-09 07:16 43.60164 -116.35116 6096 ft 250 kts 294°
2026-05-09 07:16 43.60434 -116.37514 6843 ft 262 kts 263°
2026-05-09 07:16 43.59620 -116.39792 7695 ft 275 kts 230°
2026-05-09 07:16 43.58130 -116.41480 8578 ft 278 kts 223°
2026-05-09 07:17 43.56622 -116.43164 9438 ft 280 kts 224°
2026-05-09 07:17 43.55140 -116.44852 10270 ft 281 kts 224°
2026-05-09 07:17 43.53588 -116.46643 10582 ft 303 kts 224°
2026-05-09 07:17 43.51911 -116.48594 10768 ft 327 kts 224°
2026-05-09 07:18 43.50115 -116.50687 10927 ft 349 kts 224°
2026-05-09 07:18 43.48220 -116.52895 11289 ft 363 kts 224°
2026-05-09 07:18 43.46270 -116.55160 11886 ft 368 kts 224°
2026-05-09 07:18 43.44302 -116.57447 12539 ft 372 kts 224°
2026-05-09 07:19 43.42313 -116.59760 13160 ft 377 kts 224°
2026-05-09 07:19 43.40295 -116.62107 13748 ft 382 kts 225°
2026-05-09 07:19 43.38253 -116.64482 14313 ft 387 kts 225°
2026-05-09 07:19 43.36197 -116.66870 14953 ft 387 kts 225°
2026-05-09 07:20 43.34133 -116.69266 15586 ft 389 kts 225°
2026-05-09 07:20 43.32059 -116.71672 16174 ft 392 kts 225°
2026-05-09 07:20 43.29970 -116.74092 16742 ft 394 kts 225°
2026-05-09 07:20 43.27872 -116.76523 17306 ft 397 kts 225°
2026-05-09 07:21 43.25751 -116.78981 17845 ft 400 kts 225°
2026-05-09 07:21 43.23620 -116.81445 18429 ft 402 kts 225°
2026-05-09 07:21 43.21474 -116.83923 18919 ft 404 kts 225°
2026-05-09 07:21 43.19321 -116.86408 19449 ft 405 kts 225°
2026-05-09 07:22 43.17182 -116.88874 19976 ft 407 kts 225°
2026-05-09 07:22 43.15016 -116.91369 20543 ft 408 kts 225°
2026-05-09 07:22 43.12954 -116.94020 21082 ft 404 kts 233°
2026-05-09 07:22 43.11190 -116.97010 21572 ft 404 kts 236°
2026-05-09 07:23 43.09468 -117.00056 22066 ft 406 kts 236°
2026-05-09 07:23 43.07738 -117.03125 22554 ft 408 kts 236°
2026-05-09 07:23 43.05998 -117.06200 23048 ft 409 kts 236°
2026-05-09 07:23 43.04244 -117.09281 23526 ft 411 kts 236°
2026-05-09 07:24 43.02475 -117.12372 23935 ft 413 kts 236°
2026-05-09 07:24 43.00696 -117.15469 24304 ft 416 kts 236°
2026-05-09 07:24 42.98906 -117.18577 24666 ft 418 kts 236°
2026-05-09 07:24 42.97096 -117.21713 25053 ft 420 kts 236°
2026-05-09 07:25 42.95287 -117.24843 25429 ft 422 kts 236°
2026-05-09 07:25 42.93462 -117.27998 25788 ft 424 kts 236°
2026-05-09 07:25 42.91628 -117.31165 26129 ft 427 kts 236°
2026-05-09 07:25 42.89783 -117.34349 26477 ft 429 kts 236°
2026-05-09 07:26 42.87931 -117.37541 26825 ft 431 kts 236°
2026-05-09 07:26 42.86064 -117.40756 27164 ft 433 kts 236°
2026-05-09 07:26 42.84191 -117.43976 27491 ft 435 kts 236°
2026-05-09 07:26 42.82304 -117.47218 27828 ft 437 kts 236°
2026-05-09 07:27 42.80413 -117.50463 28143 ft 439 kts 236°
2026-05-09 07:27 42.78508 -117.53729 28483 ft 441 kts 236°
2026-05-09 07:27 42.76602 -117.56991 28946 ft 439 kts 236°
2026-05-09 07:27 42.74707 -117.60230 29489 ft 436 kts 236°
2026-05-09 07:28 42.72819 -117.63453 30012 ft 434 kts 237°
2026-05-09 07:28 42.70964 -117.66619 30418 ft 433 kts 237°
2026-05-09 07:28 42.69087 -117.69822 30791 ft 433 kts 237°
2026-05-09 07:28 42.67215 -117.73012 31180 ft 431 kts 237°
2026-05-09 07:29 42.65345 -117.76195 31580 ft 430 kts 237°
2026-05-09 07:29 42.63483 -117.79361 31959 ft 428 kts 237°
2026-05-09 07:29 42.61614 -117.82508 32305 ft 429 kts 235°
2026-05-09 07:29 42.59473 -117.85373 32647 ft 436 kts 226°
2026-05-09 07:30 42.57037 -117.87853 33022 ft 440 kts 220°
2026-05-09 07:30 42.54339 -117.89876 33357 ft 447 kts 212°
2026-05-09 07:30 42.51507 -117.91627 33683 ft 448 kts 211°
2026-05-09 07:30 42.48657 -117.93335 33988 ft 447 kts 211°
2026-05-09 07:31 42.45811 -117.95029 34278 ft 446 kts 211°
2026-05-09 07:31 42.42970 -117.96727 34538 ft 446 kts 211°
2026-05-09 07:31 42.40138 -117.98431 34753 ft 446 kts 212°
2026-05-09 07:31 42.37309 -118.00145 34975 ft 445 kts 212°
2026-05-09 07:32 42.34483 -118.01862 35210 ft 445 kts 212°
2026-05-09 07:32 42.31665 -118.03578 35418 ft 445 kts 212°
2026-05-09 07:32 42.28849 -118.05294 35643 ft 444 kts 212°
2026-05-09 07:32 42.26030 -118.07011 35873 ft 444 kts 212°
2026-05-09 07:33 42.23218 -118.08722 36090 ft 443 kts 212°
2026-05-09 07:33 42.17569 -118.12154 36103 ft 445 kts 212°
2026-05-09 07:34 42.11930 -118.15568 36092 ft 443 kts 212°
2026-05-09 07:34 42.06326 -118.18955 36091 ft 441 kts 212°
2026-05-09 07:35 42.00742 -118.22325 36099 ft 439 kts 212°
2026-05-09 07:35 41.95200 -118.25665 36092 ft 439 kts 212°
2026-05-09 07:36 41.89620 -118.29020 36092 ft 440 kts 212°
2026-05-09 07:36 41.84029 -118.32376 36099 ft 441 kts 212°
2026-05-09 07:37 41.78409 -118.35743 36089 ft 443 kts 212°
2026-05-09 07:37 41.72776 -118.39110 36085 ft 444 kts 212°
2026-05-09 07:38 41.67120 -118.42484 36079 ft 446 kts 212°
2026-05-09 07:38 41.61452 -118.45858 36079 ft 446 kts 212°
2026-05-09 07:39 41.55784 -118.49225 36077 ft 446 kts 212°
2026-05-09 07:39 41.50118 -118.52585 36074 ft 445 kts 212°
2026-05-09 07:40 41.44462 -118.55932 36072 ft 444 kts 212°
2026-05-09 07:40 41.38854 -118.59245 36071 ft 443 kts 212°
2026-05-09 07:41 41.33218 -118.62569 36072 ft 443 kts 212°
2026-05-09 07:41 41.27588 -118.65883 36066 ft 442 kts 212°
2026-05-09 07:42 41.21974 -118.69182 36063 ft 441 kts 212°
2026-05-09 07:42 41.16356 -118.72476 36053 ft 441 kts 212°
2026-05-09 07:43 41.10747 -118.75760 36047 ft 441 kts 212°
2026-05-09 07:43 41.05135 -118.79039 36046 ft 441 kts 212°
2026-05-09 07:44 40.99516 -118.82315 36044 ft 441 kts 212°
2026-05-09 07:44 40.93893 -118.85588 36043 ft 442 kts 212°
2026-05-09 07:45 40.88259 -118.88862 36042 ft 443 kts 212°
2026-05-09 07:45 40.82613 -118.92136 36043 ft 444 kts 212°
2026-05-09 07:46 40.76949 -118.95415 36039 ft 445 kts 212°
2026-05-09 07:46 40.71310 -118.98672 36039 ft 445 kts 212°
2026-05-09 07:47 40.65631 -119.01947 36039 ft 445 kts 212°
2026-05-09 07:47 40.59940 -119.05224 36042 ft 446 kts 212°
2026-05-09 07:48 40.54246 -119.08494 36039 ft 446 kts 212°
2026-05-09 07:48 40.48559 -119.11751 36037 ft 446 kts 212°
2026-05-09 07:49 40.42879 -119.14999 36042 ft 445 kts 212°
2026-05-09 07:49 40.37198 -119.18244 36042 ft 445 kts 212°
2026-05-09 07:50 40.31525 -119.21478 36039 ft 444 kts 212°
2026-05-09 07:50 40.25855 -119.24706 36044 ft 444 kts 212°
2026-05-09 07:51 40.20185 -119.27927 36046 ft 444 kts 212°
2026-05-09 07:51 40.14512 -119.31144 36037 ft 444 kts 212°
2026-05-09 07:52 40.08868 -119.34339 36029 ft 445 kts 212°
2026-05-09 07:52 40.03187 -119.37548 36033 ft 445 kts 212°
2026-05-09 07:53 39.97502 -119.40754 36040 ft 445 kts 212°
2026-05-09 07:53 39.91813 -119.43956 36039 ft 445 kts 212°
2026-05-09 07:54 39.86112 -119.47160 36028 ft 446 kts 212°
2026-05-09 07:54 39.80412 -119.50358 36059 ft 446 kts 212°
2026-05-09 07:55 39.74707 -119.53553 36091 ft 447 kts 212°
2026-05-09 07:55 39.68986 -119.56750 36114 ft 448 kts 212°
2026-05-09 07:56 39.63300 -119.59922 36135 ft 448 kts 212°
2026-05-09 07:56 39.57522 -119.63141 36157 ft 449 kts 212°
2026-05-09 07:57 39.51469 -119.65415 36177 ft 467 kts 196°
2026-05-09 07:57 39.44857 -119.65591 36176 ft 479 kts 187°
2026-05-09 07:58 39.38189 -119.65309 36146 ft 479 kts 186°
2026-05-09 07:58 39.31530 -119.65056 36158 ft 478 kts 186°
2026-05-09 07:59 39.24895 -119.64858 36205 ft 477 kts 187°
2026-05-09 07:59 39.18251 -119.64690 36202 ft 477 kts 187°
2026-05-09 08:00 39.11600 -119.64524 36187 ft 478 kts 187°
2026-05-09 08:00 39.04999 -119.64357 36185 ft 478 kts 187°
2026-05-09 08:01 38.98353 -119.64187 36192 ft 478 kts 187°
2026-05-09 08:01 38.91703 -119.64017 36176 ft 478 kts 187°
2026-05-09 08:02 38.85054 -119.63847 36155 ft 478 kts 186°
2026-05-09 08:02 38.78406 -119.63677 36119 ft 478 kts 186°
2026-05-09 08:03 38.71757 -119.63509 36086 ft 479 kts 186°
2026-05-09 08:03 38.65088 -119.63341 36056 ft 480 kts 186°
2026-05-09 08:04 38.58416 -119.63171 36064 ft 480 kts 186°
2026-05-09 08:04 38.51740 -119.63002 36062 ft 480 kts 186°
2026-05-09 08:05 38.45063 -119.62833 36062 ft 479 kts 186°
2026-05-09 08:05 38.39524 -119.62694 36059 ft 480 kts 186°
2026-05-09 08:06 38.32846 -119.62526 36048 ft 479 kts 186°
2026-05-09 08:06 38.26185 -119.62357 36030 ft 479 kts 186°
2026-05-09 08:07 38.19534 -119.62191 36046 ft 478 kts 186°
2026-05-09 08:07 38.12876 -119.62026 36079 ft 478 kts 186°
2026-05-09 08:08 38.06217 -119.61862 36055 ft 479 kts 186°
2026-05-09 08:08 37.99561 -119.61693 36049 ft 477 kts 186°
2026-05-09 08:09 37.92924 -119.61527 36040 ft 477 kts 186°
2026-05-09 08:09 37.86293 -119.61363 36043 ft 477 kts 185°
2026-05-09 08:10 37.79668 -119.61199 36033 ft 476 kts 185°
2026-05-09 08:10 37.73052 -119.61029 35903 ft 474 kts 185°
2026-05-09 08:10 37.69769 -119.60948 36074 ft 472 kts 185°
2026-05-09 08:11 37.66467 -119.60873 36037 ft 477 kts 185°
2026-05-09 08:11 37.59795 -119.60715 36037 ft 480 kts 185°
2026-05-09 08:12 37.49745 -119.60464 36026 ft 482 kts 185°
2026-05-09 08:12 37.43079 -119.60298 36026 ft 482 kts 185°
2026-05-09 08:13 37.36331 -119.60132 36012 ft 482 kts 185°
2026-05-09 08:13 37.29678 -119.59970 36013 ft 481 kts 185°
2026-05-09 08:14 37.22996 -119.59806 36003 ft 480 kts 185°
2026-05-09 08:14 37.16337 -119.59644 36007 ft 478 kts 185°
2026-05-09 08:15 37.09690 -119.59485 35997 ft 477 kts 185°
2026-05-09 08:15 37.03074 -119.59540 36007 ft 474 kts 187°
2026-05-09 08:16 36.96477 -119.59712 36009 ft 474 kts 187°
2026-05-09 08:16 36.89886 -119.59865 36005 ft 474 kts 186°
2026-05-09 08:17 36.83284 -119.59992 36014 ft 475 kts 186°
2026-05-09 08:17 36.76676 -119.60109 36016 ft 475 kts 186°
2026-05-09 08:18 36.70060 -119.60226 36016 ft 476 kts 186°
2026-05-09 08:18 36.63428 -119.60344 36011 ft 477 kts 186°
2026-05-09 08:19 36.56780 -119.60463 36009 ft 479 kts 186°
2026-05-09 08:19 36.50127 -119.60583 36022 ft 485 kts 185°
2026-05-09 08:20 36.43345 -119.60705 36016 ft 488 kts 185°
2026-05-09 08:20 36.36541 -119.60824 36017 ft 490 kts 185°
2026-05-09 08:21 36.29728 -119.60943 36014 ft 490 kts 185°
2026-05-09 08:21 36.22912 -119.61063 36021 ft 489 kts 185°
2026-05-09 08:22 36.16102 -119.61183 36010 ft 489 kts 185°
2026-05-09 08:22 36.09295 -119.61303 36007 ft 489 kts 185°
2026-05-09 08:23 36.02506 -119.61422 36000 ft 488 kts 185°
2026-05-09 08:23 35.95800 -119.62134 35991 ft 477 kts 201°
2026-05-09 08:24 35.89488 -119.64623 36004 ft 476 kts 202°
2026-05-09 08:24 35.83163 -119.67103 35999 ft 477 kts 201°
2026-05-09 08:25 35.76806 -119.69496 36002 ft 478 kts 201°
2026-05-09 08:25 35.70437 -119.71868 36011 ft 478 kts 201°